Columbus Air Force Base Columbus US
ICAO: KCBM
IATA: CBM
Category: Large
Scheduled Services: No

Elevation: 219 ft
TransAlt. 18000 ft.

Airport Communications:
APP:126.075
ATIS:115.2
CLNC DEL:33.86
DEP:132.05
GND:121.9
SOF:25.21
PMSV METRO:34.46
PTD:37.6
TWR:128.65

KCBM Zoom In..

If you have problems with the map follow the link
https://www.worldairports.se/pages/airport.php?
ICAO=KCBM

Runways:

(A) RW 13C length 12004 ft width 300 ft
ILS 109.30 / hdg 135

(B) RW 13L length 8001 ft width 150 ft
---- / hdg 135

(C) RW 13R length 6315 ft width 175 ft
---- / hdg 135

(D) RW 31C length 12004 ft width 300 ft
ILS 108.70 / hdg 315

(E) RW 31L length 6315 ft width 175 ft
---- / hdg 315

(F) RW 31R length 8001 ft width 150 ft
---- / hdg 315

Location; KCBM
Day. 12 / Time. 22.56 Zulu
* Altimeter: 30.25
* Temperature: 10° c. 50°f.
* Wind from: 150° Speed 06 kn.
Dewpoint: 04° c.
Visibility: 10 Statute Miles.
Clouds: Overcast 2600 ft.

KCBM 122256Z AUTO 15006KT 10SM OVC026 10/04 A3025 RMK AO2 CIG 025 RWY31C SLP248 T00960038 $


Wind From 150°
Speed 06 kn.

 
 
jpsmedia worldairports.se 2019   terms of use